Вернуться в каталог

IRNSS 1C

АктивенНавигацияGEO
NORAD 40269·PAYLOAD·🇮🇳 India

Запущен Oct 15, 2014 с Satish Dhawan Space Centre

Loading…

TLE

СвежийSource: CelesTrak SupGP

Эпоха: Sep 13, 2026, 23:59 UTC

1 40269C 14061A   26256.99979167 -.00000075  00000+0  00000+0 0  2568
2 40269   6.7384  87.2163 0020242   9.7759 338.9669  1.00271569    11

Отслеживайте IRNSS 1C в реальном времени с AllMySat

Download on the App Store